Weather in Chusovoye

Russia / Sverdlovsk Oblast     57°20′17″N   59°14′55″E
temp.,
°C
wind,
m/s
gust,
m/s
humid.,
%
clouds,
%
prec.,
mm/h
press.,
hPa
HPBL,
m
5 august, thu
thu523:00+19ese228563 0.3 101226
02:00+17w11925 0.0 101113
05:00+17s228297 0.0 100920
08:00+20ese117166 0.0 1010141
11:00+23s3566100 0.0 1009272
14:00+27wsw374495 0.0 1008991
17:00+25w355799 0.0 1008612
20:00+22nw487593 0.0 1008551
6 august, fri
fri623:00+16nw4997100 1.8 1009479
02:00+14nw4892100 0.0 1009563
05:00+13nw4994100 0.1 1009598
08:00+13nw4993100 0.2 1010496
11:00+15nw4885100 0.4 1011562
14:00+21nnw684924 0.3 10101540
17:00+21nnw574510 0.3 10111665
20:00+17nw49572 0.0 1012691
7 august, sat
sat723:00+13nw311711 0.0 1013403
02:00+10nw27865 0.0 1014140
05:00+8wnw23934 0.0 101556
08:00+13nw49700 0.0 1014420
11:00+18nw57490 0.0 10141310
14:00+20nw57420 0.0 10131669
17:00+20nw574216 0.0 10141943
20:00+15nnw49673 0.0 1015850
8 august, sun
sun823:00+11nw311811 0.0 1016524
02:00+10nw4129214 0.0 1016537
05:00+8nw4129838 0.0 1017405
08:00+10nw588694 0.0 1017468
11:00+14nnw587179 0.0 1017788
14:00+18nnw575840 0.0 10171163
17:00+17nw566483 0.0 10181106
20:00+15nnw477969 0.0 1018549
9 august, mon
mon923:00+14nnw3885100 0.0 1019381
02:00+13nw269165 0.0 1019254
05:00+9nw239946 0.0 102061
08:00+12nw358851 0.0 1020346
11:00+14nw357774 0.0 1020592
14:00+19nw345680 0.0 1019943
17:00+21nw3543100 0.0 10191478
20:00+16nw2669100 0.0 1019161